Date,TemperatureHighF,TemperatureAvgF,TemperatureLowF,DewpointHighF,DewpointAvgF,DewpointLowF,HumidityHigh,HumidityAvg,HumidityLow,PressureMaxIn,PressureMinIn,WindSpeedMaxMPH,WindSpeedAvgMPH,GustSpeedMaxMPH,PrecipitationSumIn
2013-2-1,72,56,44,45,38,32,81,54,28,30.33,30.22,2,0,0,0.00
2013-2-2,77,60,46,53,45,34,87,61,35,30.28,30.13,3,0,0,0.00
2013-2-3,75,60,50,56,46,35,89,64,26,30.22,30.09,5,1,0,0.00
2013-2-4,73,59,47,53,45,24,95,67,16,30.16,30.04,4,1,0,0.01
2013-2-5,77,65,51,61,53,45,88,68,47,30.09,30.00,5,1,0,0.00
2013-2-6,80,70,59,66,61,56,93,75,53,30.12,30.02,4,1,0,0.00
2013-2-7,79,71,64,66,64,62,95,80,55,30.07,29.93,8,3,0,0.00
2013-2-8,82,72,61,70,64,52,95,78,38,30.07,29.90,8,3,0,0.00
2013-2-9,80,68,56,64,59,54,97,76,49,30.17,30.06,4,1,0,0.00
2013-2-10,81,71,64,64,62,60,89,74,49,30.24,30.13,9,4,0,0.00
2013-2-11,80,72,64,67,65,62,93,80,60,30.20,30.08,7,3,0,0.00
2013-2-12,80,72,66,71,68,64,97,87,73,30.11,29.96,9,3,0,0.00
2013-2-13,80,74,66,73,71,58,97,90,75,30.00,29.90,9,4,0,0.01
2013-2-14,71,63,60,69,61,57,97,92,74,30.03,29.90,8,1,0,2.44
2013-2-15,69,63,60,63,61,58,97,91,80,30.07,29.95,3,0,0,0.07
2013-2-16,68,61,56,60,52,42,91,73,54,30.11,29.93,12,5,0,0.00
2013-2-17,62,52,42,43,30,23,63,44,25,30.34,30.11,9,2,0,0.00
2013-2-18,71,56,40,52,41,27,79,59,40,30.34,30.21,9,2,0,0.00
2013-2-19,77,66,53,64,58,50,95,78,61,30.22,30.09,6,2,0,0.00
2013-2-20,84,68,58,67,60,56,99,78,39,30.12,30.00,5,1,0,0.00
2013-2-21,81,71,63,68,64,60,97,81,56,30.10,29.99,5,1,0,0.00
2013-2-22,83,73,65,71,67,64,97,84,62,30.09,29.99,7,3,0,0.00
2013-2-23,81,74,68,74,71,67,97,90,76,30.03,29.92,9,4,0,0.00
2013-2-24,83,74,69,73,70,68,99,87,63,29.99,29.91,7,2,0,0.01
2013-2-25,82,75,68,74,70,66,97,87,73,29.92,29.79,8,2,0,0.00
2013-2-26,81,75,68,74,71,66,95,88,78,29.90,29.75,12,5,0,0.08
2013-2-27,75,68,64,66,63,59,98,83,65,29.99,29.87,4,1,0,0.01
2013-2-28,73,65,60,60,57,55,89,76,54,30.03,29.92,6,2,0,0.00